Location: Ozark
(37.5425°N, 88.7628°W)
Time: 18:19:42
(UTC+00:00)

CZ-4 R/B - Pass Details

Date: 26 January 2020
Orbit: 534 x 597 km, 97.7° (Epoch: 16 February)

Event Time Altitude Azimuth Distance (km) Brightness Sun altitude
Rises 23:48:08 0° 147° (SSE) 2,751 4.7 -7.5°
Reaches altitude 10° 23:50:21 10° 139° (SE) 1,870 3.8 -8.0°
Maximum altitude 23:54:05 36° 72° (ENE) 917 1.9 -8.7°
Drops below altitude 10° 23:57:54 10° 5° (N) 1,915 3.9 -9.4°
Sets 00:00:12 0° 357° (N) 2,828 4.8 -9.8°
